[[{"header":{"parameterUnit":"m.s-1","parameterCategory":1,"la1":30.2991,"la2":30.254,"lo1":-89.0895,"lo2":-89.0444,"dy":0.0017,"dx":0.0017,"nx":28,"ny":28,"refTime":"2025-04-07T21:00:00:Z","depth":0,"parameterNumber":2,"parameterNumberName":"U-component_of_WINDS"},"data":[0,0,0,0,0,0,0,0,0,0,0,0,0,0,0,0,0,0,0,0,0,0,0,0,0,0,0,0,0,0,0,0,0,0,0,0,0,0,0,0,0,0,0,0,0,0,0,0,0,0,0,0,0,0,0,0,0,0,0.7546,0.7546,0,0.7536,0.7536,0.7536,0.7553,0.7554,0.7554,0.7555,0.7541,0.754,0.7539,0,0,0,0,0,0,0,0,0,0,0,0,0,0.7578,0.7577,0.7546,0.7546,0.7546,0.7536,0.7536,0.7536,0.7553,0.7554,0.7555,0.7555,0.7542,0.754,0.7539,0,0,0,0,0,0,0,0,0,0,0,0,0,0.7565,0.7577,0.7546,0.7553,0.7554,0.7536,0.7536,0.7536,0.7553,0.7554,0.7555,0.7556,0.7542,0.7541,0.7539,0.7513,0,0,0.7535,0.7534,0,0,0,0,0,0,0,0,0.7566,0.7564,0.7552,0.7553,0.7553,0.7547,0.7542,0.7528,0.7553,0.7553,0.7555,0.7556,0.7542,0.7541,0.7537,0.7512,0.7512,0.7535,0.7534,0.7533,0.7533,0,0,0,0,0,0,0,0.7567,0.7565,0.7542,0.7552,0.7553,0.7556,0.7556,0.754,0.7543,0.7553,0.7554,0.7553,0.7543,0.7538,0.7537,0.7512,0.7535,0.7534,0.7533,0.7532,0.7465,0.7464,0,0,0,0,0,0,0.7567,0.7565,0.7542,0.7542,0.7562,0.7555,0.7554,0.7548,0.7543,0.7543,0.7553,0.7554,0.754,0.7538,0.7536,0.7505,0.7533,0.7532,0.7531,0.7466,0.7465,0.7464,0,0,0,0,0,0,0.7568,0.7565,0.7543,0.7554,0.7551,0.7554,0.7547,0.7547,0.7543,0.7543,0.7543,0.7548,0.7541,0.7538,0.7519,0.7505,0.7532,0.753,0.7467,0.7466,0.7465,0.7442,0,0,0,0,0,0,0.7569,0.7565,0.7556,0.7554,0.7551,0.7526,0.7546,0.7547,0.7541,0.7543,0.7538,0.7538,0.7541,0.7521,0.7518,0.7503,0.7529,0.7469,0.7467,0.7465,0.7444,0.744,0.7437,0,0,0,0,0,0.757,0.7549,0.7555,0.7552,0.7539,0.7525,0.7524,0.7529,0.754,0.753,0.753,0.7538,0.7507,0.7519,0.7515,0.75,0.7469,0.7467,0.7465,0.7446,0.7441,0.7437,0,0,0,0,0,0,0.7547,0.7549,0.7555,0.7533,0.7529,0.7528,0.7516,0.7524,0.7515,0.7517,0.7523,0.7522,0.7501,0.7499,0.7512,0.7475,0.749,0.7487,0.7477,0.7472,0.7468,0.7468,0.7528,0,0,0,0,0,0.754,0.753,0.7531,0.7512,0.751,0.7513,0.7507,0.7512,0.7508,0.7505,0.7504,0.7498,0.7488,0.748,0.747,0.7445,0.7444,0.7433,0.7429,0.7426,0.7423,0.7409,0.7404,0.7457,0.7457,0.7457,0,0,0.7524,0.7524,0.7517,0.7507,0.7505,0.7493,0.7511,0.7498,0.7489,0.7503,0.7485,0.7484,0.7478,0.7456,0.7446,0.7453,0.7409,0.7424,0.7421,0.7419,0.7407,0.7402,0.7397,0.7456,0.7456,0.7456,0,0,0.749,0.7489,0.7472,0.747,0.7466,0.7469,0.7465,0.7464,0.7464,0.7446,0.7456,0.7446,0.7427,0.7423,0.7418,0.7384,0.7391,0.7381,0.736,0.7347,0.7343,0.7339,0.7326,0.7321,0.7378,0.7378,0.7378,0,0.747,0.7454,0.7463,0.7449,0.7444,0.7459,0.7441,0.7438,0.7431,0.7427,0.7436,0.7414,0.7411,0.7388,0.738,0.7376,0.7371,0.738,0.7343,0.7339,0.7336,0.7323,0.7319,0.7376,0.7376,0.7377,0.7377,0,0.743,0.7418,0.7405,0.74,0.7394,0.7379,0.7384,0.7377,0.7383,0.7385,0.7367,0.7365,0.7355,0.735,0.7355,0.7328,0.7332,0.7342,0.7357,0.7329,0.7318,0.7313,0.7374,0.7375,0.7375,0.7376,0,0,0.7378,0.7379,0.7374,0.7371,0.737,0.7361,0.7346,0.7338,0.7331,0.7327,0.7314,0.7299,0.7309,0.7303,0.7308,0.7297,0.7269,0.7308,0.7308,0.73,0.7238,0.723,0.7224,0.7275,0.7274,0.7274,0.7238,0,0.7342,0.7318,0.7327,0.7302,0.7291,0.7306,0.7293,0.729,0.7292,0.7283,0.7285,0.7274,0.7288,0.7285,0.7274,0.7275,0.7257,0.7278,0.7262,0.7261,0.7261,0.7218,0.7208,0.7175,0.7234,0.7233,0.7233,0,0.7297,0.7292,0.7266,0.7267,0.7263,0.7252,0.7245,0.7237,0.7234,0.7236,0.7231,0.7239,0.7225,0.7242,0.7221,0.7236,0.723,0.723,0.7229,0.7225,0.7244,0.7212,0.7165,0.7159,0.7226,0.7226,0.7227,0,0.726,0.7247,0.723,0.7228,0.7229,0.7221,0.722,0.7219,0.7214,0.7208,0.7204,0.7197,0.7192,0.7185,0.7191,0.7203,0.7169,0.7187,0.717,0.7169,0.716,0.716,0.7109,0.7159,0.7159,0.7159,0.716,0,0.7218,0.7202,0.7214,0.7203,0.7185,0.7195,0.7177,0.7178,0.7177,0.7167,0.7179,0.7169,0.7178,0.7168,0.7172,0.7154,0.7152,0.7153,0.7154,0.7151,0.715,0.7145,0.7147,0.7158,0.7158,0.7159,0.7159,0,0.7173,0.7181,0.7163,0.7166,0.7167,0.7153,0.7155,0.7145,0.715,0.7136,0.7133,0.7139,0.7128,0.7134,0.7123,0.7126,0.7102,0.7107,0.7103,0.7104,0.7085,0.7086,0.7028,0.702,0.7077,0.7077,0.7076,0,0.7145,0.7133,0.7135,0.713,0.7129,0.712,0.7115,0.7125,0.712,0.7117,0.7107,0.7098,0.7091,0.7073,0.7076,0.7067,0.7071,0.7051,0.707,0.7067,0.7069,0.7069,0.7067,0.7047,0.7046,0.7046,0.7045,0,0.7094,0.7099,0.7092,0.7086,0.7081,0.7077,0.7074,0.7068,0.7079,0.7072,0.7062,0.7057,0.7046,0.7037,0.703,0.7029,0.7038,0.704,0.7035,0.7031,0.7028,0.7028,0.7091,0.704,0.7041,0.7041,0.7042,0.7042,0.7055,0.7045,0.7045,0.7037,0.7037,0.7034,0.7025,0.7029,0.7021,0.7014,0.7021,0.7009,0.7008,0.7,0.6998,0.6988,0.6996,0.6989,0.6987,0.6985,0.6982,0.7032,0.6987,0.6987,0.6987,0.6988,0.6988,0,0.7003,0.7005,0.6998,0.6994,0.6988,0.7,0.6997,0.6991,0.6981,0.6979,0.6973,0.6962,0.6953,0.6956,0.6948,0.694,0.6944,0.6937,0.6937,0.6937,0.6976,0.698,0.6934,0.6934,0.6934,0.6934,0.6934,0.6934,0.6975,0.6959,0.6964,0.6948,0.6949,0.6939,0.6936,0.6934,0.6933,0.692,0.6914,0.6916,0.6916,0.6909,0.6902,0.6903,0.6899,0.689,0.6892,0.6929,0.6934,0.6939,0.6943,0.6889,0.6889,0.6853,0.6853,0.6853]},{"header":{"parameterUnit":"m.s-1","parameterCategory":1,"la1":30.2991,"la2":30.254,"lo1":-89.0895,"lo2":-89.0444,"dy":0.0017,"dx":0.0017,"nx":28,"ny":28,"refTime":"2025-04-07T21:00:00:Z","depth":0,"parameterNumber":3,"parameterNumberName":"V-component_of_WINDS"},"data":[0,0,0,0,0,0,0,0,0,0,0,0,0,0,0,0,0,0,0,0,0,0,0,0,0,0,0,0,0,0,0,0,0,0,0,0,0,0,0,0,0,0,0,0,0,0,0,0,0,0,0,0,0,0,0,0,0,0,-5.4627,-5.4629,0,-5.4788,-5.479,-5.4792,-5.4718,-5.4714,-5.471,-5.4706,-5.4867,-5.4875,-5.4883,0,0,0,0,0,0,0,0,0,0,0,0,0,-5.4252,-5.4259,-5.4627,-5.4629,-5.4631,-5.4788,-5.479,-5.4792,-5.4719,-5.4714,-5.4709,-5.4704,-5.4865,-5.4874,-5.4884,0,0,0,0,0,0,0,0,0,0,0,0,0,-5.4414,-5.4262,-5.4627,-5.4613,-5.4614,-5.4787,-5.479,-5.4793,-5.472,-5.4714,-5.4708,-5.4702,-5.4861,-5.4873,-5.4885,-5.508,0,0,-5.4922,-5.4927,0,0,0,0,0,0,0,0,-5.4405,-5.4428,-5.4613,-5.4615,-5.4615,-5.4727,-5.4717,-5.4889,-5.4721,-5.4679,-5.4706,-5.4699,-5.4825,-5.484,-5.4883,-5.5087,-5.5094,-5.4923,-5.493,-5.4935,-5.4939,0,0,0,0,0,0,0,-5.4394,-5.442,-5.469,-5.4616,-5.4617,-5.4598,-5.4614,-5.4749,-5.4784,-5.4683,-5.4678,-5.4698,-5.4824,-5.4872,-5.4886,-5.5096,-5.4922,-5.4933,-5.4941,-5.4945,-5.5467,-5.5473,0,0,0,0,0,0,-5.4383,-5.4412,-5.4685,-5.4695,-5.4493,-5.461,-5.4628,-5.4697,-5.4782,-5.479,-5.4703,-5.4694,-5.4854,-5.4872,-5.4892,-5.5125,-5.4935,-5.4946,-5.4953,-5.546,-5.5468,-5.5475,0,0,0,0,0,0,-5.4376,-5.4409,-5.4679,-5.4552,-5.4585,-5.4623,-5.4701,-5.4703,-5.475,-5.4798,-5.4803,-5.4745,-5.485,-5.4875,-5.5033,-5.5129,-5.4952,-5.4963,-5.5452,-5.5463,-5.5472,-5.5593,0,0,0,0,0,0,-5.4365,-5.4406,-5.4482,-5.4555,-5.4592,-5.482,-5.4707,-5.4711,-5.4772,-5.4762,-5.4839,-5.4845,-5.4847,-5.5016,-5.5045,-5.5143,-5.4972,-5.5444,-5.5457,-5.5469,-5.5581,-5.5606,-5.5628,0,0,0,0,0,-5.4352,-5.4509,-5.4486,-5.452,-5.4688,-5.4826,-5.4847,-5.4847,-5.478,-5.4856,-5.4885,-5.4843,-5.5114,-5.5033,-5.5065,-5.5168,-5.5438,-5.5453,-5.5468,-5.557,-5.5601,-5.5627,0,0,0,0,0,0,-5.4446,-5.4518,-5.4494,-5.4679,-5.4747,-5.4813,-5.4909,-5.488,-5.4967,-5.4954,-5.4948,-5.4966,-5.5131,-5.5165,-5.5073,-5.536,-5.5265,-5.5288,-5.5332,-5.5362,-5.5385,-5.5373,-5.4982,0,0,0,0,0,-5.4488,-5.4595,-5.4652,-5.481,-5.4846,-5.4872,-5.4932,-5.4926,-5.4995,-5.5023,-5.5064,-5.5132,-5.5232,-5.5299,-5.5393,-5.5585,-5.56,-5.5671,-5.5694,-5.5713,-5.5733,-5.5835,-5.5867,-5.5524,-5.5524,-5.5524,0,0,-5.4577,-5.4629,-5.4697,-5.4831,-5.4882,-5.4992,-5.4896,-5.5017,-5.5098,-5.5041,-5.5194,-5.5226,-5.5301,-5.5477,-5.5557,-5.5511,-5.583,-5.5732,-5.5747,-5.5756,-5.5854,-5.5886,-5.5915,-5.5535,-5.5533,-5.5531,0,0,-5.4794,-5.4845,-5.4983,-5.5036,-5.5116,-5.5132,-5.5165,-5.5236,-5.5255,-5.5409,-5.5368,-5.5463,-5.5636,-5.5691,-5.5742,-5.5979,-5.5943,-5.6009,-5.6132,-5.6232,-5.6259,-5.6283,-5.6368,-5.6398,-5.6028,-5.6029,-5.6029,0,-5.4894,-5.506,-5.5056,-5.518,-5.524,-5.5194,-5.5331,-5.5383,-5.549,-5.5531,-5.5478,-5.5694,-5.5741,-5.5928,-5.5986,-5.6029,-5.6065,-5.6001,-5.6256,-5.628,-5.6302,-5.6382,-5.6414,-5.6036,-5.6036,-5.6035,-5.6034,0,-5.5178,-5.5293,-5.5394,-5.5499,-5.5569,-5.5699,-5.5715,-5.5786,-5.5773,-5.5794,-5.595,-5.6005,-5.6109,-5.6153,-5.6142,-5.6339,-5.6308,-5.6256,-5.6161,-5.6343,-5.6418,-5.6449,-5.6047,-5.6045,-5.6042,-5.6041,0,0,-5.5461,-5.5562,-5.5599,-5.5646,-5.5729,-5.5818,-5.5945,-5.6048,-5.6109,-5.6183,-5.6289,-5.6436,-5.6388,-5.6445,-5.6439,-5.6527,-5.671,-5.6464,-5.6465,-5.6508,-5.693,-5.697,-5.7005,-5.6686,-5.6692,-5.6697,-5.6924,0,-5.5685,-5.591,-5.591,-5.6117,-5.6222,-5.6179,-5.6289,-5.6352,-5.6374,-5.6466,-5.6489,-5.6594,-5.6523,-5.6557,-5.6642,-5.667,-5.6795,-5.6654,-5.6784,-5.6788,-5.6767,-5.7045,-5.7087,-5.7299,-5.6953,-5.6958,-5.6962,0,-5.5977,-5.6062,-5.6279,-5.6347,-5.6391,-5.6491,-5.6585,-5.6674,-5.6743,-5.6752,-5.6816,-5.6796,-5.6924,-5.6824,-5.6999,-5.6903,-5.6955,-5.6977,-5.6985,-5.6998,-5.6887,-5.7065,-5.7367,-5.7399,-5.7008,-5.7005,-5.7001,0,-5.6162,-5.633,-5.6482,-5.6523,-5.6606,-5.6676,-5.6714,-5.6777,-5.6839,-5.692,-5.696,-5.7055,-5.7107,-5.718,-5.7185,-5.7113,-5.7362,-5.7263,-5.7372,-5.7373,-5.7428,-5.7424,-5.7743,-5.7461,-5.7461,-5.746,-5.7459,0,-5.6412,-5.6547,-5.6566,-5.666,-5.6809,-5.6806,-5.6953,-5.6984,-5.704,-5.7138,-5.7105,-5.7197,-5.7198,-5.7291,-5.7296,-5.7439,-5.7463,-5.7473,-5.7473,-5.7477,-5.7476,-5.7512,-5.7498,-5.7468,-5.7467,-5.7465,-5.7463,0,-5.6645,-5.6663,-5.6826,-5.689,-5.6909,-5.7017,-5.7071,-5.7159,-5.7178,-5.7301,-5.733,-5.7359,-5.7467,-5.7479,-5.7604,-5.7607,-5.778,-5.7764,-5.7758,-5.7755,-5.7865,-5.7854,-5.8218,-5.8265,-5.7952,-5.7955,-5.7958,0,-5.6804,-5.6907,-5.6983,-5.7046,-5.7088,-5.7191,-5.7254,-5.7254,-5.7321,-5.7406,-5.7484,-5.7589,-5.7673,-5.7846,-5.7878,-5.7973,-5.7959,-5.8079,-5.7973,-5.7973,-5.7961,-5.7955,-5.7965,-5.81,-5.8104,-5.8106,-5.8109,0,-5.7085,-5.7089,-5.7182,-5.7278,-5.7354,-5.7429,-5.75,-5.7553,-5.7562,-5.7638,-5.7749,-5.7814,-5.7942,-5.8046,-5.8139,-5.8175,-5.8144,-5.8142,-5.8172,-5.8178,-5.817,-5.8176,-5.7815,-5.8134,-5.8131,-5.8129,-5.8128,-5.8127,-5.7286,-5.7375,-5.7443,-5.7547,-5.76,-5.7666,-5.7752,-5.7781,-5.7874,-5.7979,-5.7973,-5.8095,-5.8159,-5.8281,-5.8324,-5.8418,-5.8378,-5.8422,-5.8433,-5.8444,-5.8456,-5.8155,-5.8435,-5.8434,-5.8433,-5.8433,-5.8432,0,-5.7566,-5.7607,-5.7702,-5.7802,-5.7884,-5.7847,-5.7923,-5.7993,-5.8101,-5.8164,-5.8248,-5.8374,-5.8474,-5.8512,-5.861,-5.8677,-5.8665,-5.8703,-5.8698,-5.8707,-5.8486,-5.845,-5.8711,-5.8711,-5.8711,-5.8711,-5.8711,-5.8711,-5.7721,-5.787,-5.7881,-5.8055,-5.8094,-5.8214,-5.826,-5.8321,-5.8371,-5.8514,-5.8598,-5.8622,-5.8675,-5.8776,-5.8865,-5.8874,-5.8911,-5.8956,-5.8958,-5.8751,-5.8723,-5.8696,-5.8662,-5.8964,-5.8964,-5.9171,-5.9173,-5.9174]}]]